G4MDH Weather Reports


Display with metric or nautical units.
time (UTC)temp
F
wind
direction
speed
MPH
gust
MPH
rain 1hr
in
rain 24hr
in
rain mn
in
humidity
%
barometer
mb
20260507215329 50 285 0.0 1.0 0.00 0.00 0.00 75 1015.8
20260507214811 50 277 0.0 1.0 0.00 0.00 0.00 75 1015.7
20260507214313 50 273 0.0 1.0 0.00 0.00 0.00 76 1015.7
20260507213815 51 272 0.0 1.0 0.00 0.00 0.00 76 1015.7
20260507213345 51 263 0.0 1.0 0.00 0.00 0.00 76 1015.6
20260507212851 51 248 0.0 2.0 0.00 0.00 0.00 76 1015.6
20260507212329 51 242 0.0 2.0 0.00 0.00 0.00 76 1015.6
20260507211836 51 226 0.0 1.0 0.00 0.00 0.00 76 1015.5
20260507211316 51 253 0.0 1.0 0.00 0.00 0.00 76 1015.5
20260507210815 51 157 0.0 0.0 0.00 0.00 0.00 76 1015.5
20260507210345 52 157 0.0 0.0 0.00 0.00 0.00 76 1015.4
20260507205831 52 158 0.0 0.0 0.00 0.00 0.00 76 1015.5
20260507205313 52 157 0.0 3.0 0.00 0.00 0.00 76 1015.5
20260507204815 52 156 0.0 3.0 0.00 0.00 0.00 76 1015.5
20260507204317 52 232 0.0 2.0 0.00 0.00 0.00 75 1015.4
20260507203825 53 115 0.0 0.0 0.00 0.00 0.00 75 1015.4
20260507203335 53 115 0.0 1.0 0.00 0.00 0.00 75 1015.4
20260507202836 53 105 0.0 1.0 0.00 0.00 0.00 74 1015.4
20260507202324 53 328 0.0 1.0 0.00 0.00 0.00 74 1015.3
20260507201831 53 328 0.0 0.0 0.00 0.00 0.00 74 1015.2
20260507201333 53 329 0.0 1.0 0.00 0.00 0.00 73 1015.2
20260507200841 53 328 0.0 1.0 0.00 0.00 0.00 73 1015.1
20260507200323 53 336 0.0 0.0 0.00 0.00 0.00 72 1015.0
20260507195830 54 336 0.0 0.0 0.00 0.00 0.00 72 1014.9
20260507195312 54 336 0.0 1.0 0.00 0.00 0.00 72 1014.9
20260507194834 54 336 0.0 1.0 0.00 0.00 0.00 72 1014.8
20260507194323 54 336 0.0 1.0 0.00 0.00 0.00 72 1014.7
20260507193825 54 336 0.0 1.0 0.00 0.00 0.00 71 1014.7
20260507193334 54 323 0.0 1.0 0.00 0.00 0.00 71 1014.7
20260507192836 54 25 0.0 1.0 0.00 0.00 0.00 71 1014.6
20260507192317 55 101 0.0 2.0 0.00 0.00 0.00 70 1014.7
20260507191826 55 338 0.0 2.0 0.00 0.00 0.00 69 1014.7
20260507191344 55 305 0.0 1.0 0.00 0.00 0.00 68 1014.6
20260507190833 55 319 0.0 3.0 0.00 0.00 0.00 67 1014.7
20260507190319 56 342 1.0 4.0 0.00 0.00 0.00 67 1014.6
20260507185844 56 274 1.0 4.0 0.00 0.00 0.00 66 1014.6
20260507185325 56 238 0.0 1.0 0.00 0.00 0.00 66 1014.6
20260507184811 56 239 0.0 1.0 0.00 0.00 0.00 66 1014.6
20260507184313 56 258 0.0 1.0 0.00 0.00 0.00 66 1014.5
20260507183822 56 255 0.0 1.0 0.00 0.00 0.00 66 1014.6
20260507183325 56 237 0.0 2.0 0.00 0.00 0.00 66 1014.5
20260507182832 57 273 1.0 2.0 0.00 0.00 0.00 65 1014.5
20260507182334 57 221 0.0 1.0 0.00 0.00 0.00 65 1014.5
20260507181822 57 255 0.0 1.0 0.00 0.00 0.00 65 1014.6
20260507180820 57 255 0.0 3.0 0.00 0.00 0.00 64 1014.5
20260507180323 57 257 1.0 3.0 0.00 0.00 0.00 64 1014.5
20260507175822 57 340 0.0 3.0 0.00 0.00 0.00 64 1014.4
20260507175330 57 332 1.0 3.0 0.00 0.00 0.00 63 1014.4
20260507174812 57 259 1.0 2.0 0.00 0.00 0.00 62 1014.4
20260507174313 58 246 0.0 2.0 0.00 0.00 0.00 62 1014.4
20260507173822 58 268 0.0 2.0 0.00 0.00 0.00 62 1014.4
20260507173325 58 254 0.0 1.0 0.00 0.00 0.00 62 1014.4
20260507172826 58 281 0.0 2.0 0.00 0.00 0.00 62 1014.5
20260507172334 58 330 0.0 2.0 0.00 0.00 0.00 62 1014.4
20260507171815 58 280 0.0 2.0 0.00 0.00 0.00 62 1014.3
20260507171345 58 261 1.0 3.0 0.00 0.00 0.00 62 1014.4
20260507170846 58 283 1.0 5.0 0.00 0.00 0.00 62 1014.3
20260507170335 58 264 1.0 5.0 0.00 0.00 0.00 62 1014.4
20260507165816 58 245 1.0 4.0 0.00 0.00 0.00 62 1014.4
20260507165319 58 298 1.0 2.0 0.00 0.00 0.00 63 1014.4
20260507164829 58 285 0.0 3.0 0.00 0.00 0.00 63 1014.5
20260507164349 58 328 1.0 4.0 0.00 0.00 0.00 62 1014.5
20260507163837 58 248 2.0 4.0 0.00 0.00 0.00 62 1014.5
20260507163321 58 269 2.0 4.0 0.00 0.00 0.00 62 1014.5
20260507162820 58 291 1.0 4.0 0.00 0.00 0.00 62 1014.5
20260507162329 58 282 1.0 4.0 0.00 0.00 0.00 62 1014.5
20260507161810 58 351 1.0 5.0 0.00 0.00 0.00 63 1014.4
20260507161313 58 300 1.0 6.0 0.00 0.00 0.00 62 1014.5
20260507160842 58 250 2.0 6.0 0.00 0.00 0.00 62 1014.5
20260507160323 58 236 2.0 6.0 0.00 0.00 0.00 61 1014.5
20260507155851 58 292 2.0 3.0 0.00 0.00 0.00 61 1014.5
20260507155312 58 248 1.0 3.0 0.00 0.00 0.00 61 1014.5
20260507154841 58 245 0.0 3.0 0.00 0.00 0.00 61 1014.5
20260507154328 58 294 2.0 5.0 0.00 0.00 0.00 60 1014.5
20260507153811 58 301 2.0 6.0 0.00 0.00 0.00 60 1014.4
20260507153321 58 268 1.0 6.0 0.00 0.00 0.00 59 1014.5
20260507152822 58 263 1.0 5.0 0.00 0.00 0.00 59 1014.5
20260507152324 58 298 1.0 5.0 0.00 0.00 0.00 58 1014.5
20260507151832 58 277 1.0 5.0 0.00 0.00 0.00 57 1014.6
20260507151314 58 252 1.0 5.0 0.00 0.00 0.00 57 1014.5
20260507150842 58 347 1.0 3.0 0.00 0.00 0.00 56 1014.5
20260507150344 58 265 1.0 3.0 0.00 0.00 0.00 55 1014.6
20260507145841 59 273 1.0 3.0 0.00 0.00 0.00 54 1014.6
20260507145344 59 276 1.0 3.0 0.00 0.00 0.00 54 1014.7
20260507144843 59 324 1.0 3.0 0.00 0.00 0.00 54 1014.7
20260507144353 59 278 0.0 2.0 0.00 0.00 0.00 53 1014.6
20260507143826 59 302 0.0 3.0 0.00 0.00 0.00 54 1014.7
20260507143312 59 285 1.0 3.0 0.00 0.00 0.00 54 1014.7
20260507142820 59 284 1.0 3.0 0.00 0.00 0.00 54 1014.7
20260507142322 59 241 1.0 3.0 0.00 0.00 0.00 54 1014.7
20260507141824 59 248 1.0 5.0 0.00 0.00 0.00 53 1014.8
20260507141332 59 269 1.0 5.0 0.00 0.00 0.00 53 1014.9
20260507140813 59 281 1.0 3.0 0.00 0.00 0.00 53 1014.9
20260507140315 59 115 1.0 5.0 0.00 0.00 0.00 53 1014.9
20260507135822 59 270 2.0 5.0 0.00 0.00 0.00 52 1014.9
20260507135324 60 210 1.0 3.0 0.00 0.00 0.00 51 1014.9
20260507134829 60 269 0.0 3.0 0.00 0.00 0.00 52 1014.9